Location: Mascot Post Office (historical)
(40.2645°N, 99.5462°W)
Time: 17:20:41
(UTC+00:00)

IRIS - Pass Details

Date: 14 July 2020
Orbit: 279 x 2722 km, 41.2° (Epoch: 04 August)

Event Time Altitude Azimuth Distance (km) Brightness Sun altitude
Rises 03:43:10 0° 283° (WNW) 2,960 9.5 -15.2°
Reaches altitude 10° 03:46:02 10° 279° (W) 1,722 8.1 -15.5°
Maximum altitude 03:49:35 50° 203° (SSW) 484 4.3 -16.0°
Enters shadow 03:50:00 45° 169° (S) 505 4.2 -16.0°
